Location: Unspecified
(0.0000°N, 0.0000°E)
Time: 08:09:24
(UTC+00:00)

CZ-4C DEB - Pass Details

Date: 12 March 2026
Orbit: 805 x 1381 km, 63.4° (Epoch: 18 April)

Event Time Altitude Azimuth Distance (km) Brightness Sun altitude
Rises 20:30:29 0° 329° (NNW) 4,242 ? -35.1°
Reaches altitude 10° 20:33:16 10° 326° (NW) 3,329 ? -35.8°
Maximum altitude 20:41:24 62° 247° (WSW) 1,520 ? -37.9°
Enters shadow 20:43:08 53° 202° (SSW) 1,656 ? -38.3°
